Погода в Брусенце

Россия / Вологодская область     60°14′44″N   43°57′40″E
темп.,
°C
ветер,
м/с
пор.,
м/с
влажн.,
%
обл.,
%
осадки,
мм/ч
давл.,
гПа
погр.,
м
12 мая, ср
ср1200:00+10ююз228517 0.0 103037
03:00+9ююз228645 0.0 103029
06:00+11ююз247327 0.0 1030125
09:00+18ю12495 0.0 1030554
12:00+21ю22340 0.0 10281015
15:00+22ю22290 0.0 10271253
18:00+21ю11470 0.0 102614
21:00+14юв22640 0.0 102711
13 мая, чт
чт1300:00+13ююв22810 0.0 102713
03:00+12ююв22855 0.0 102728
06:00+15ююв257660 0.0 1026150
09:00+21ююв345837 0.0 1025665
12:00+22ююз255536 0.0 1024756
15:00+21ююв255687 0.0 1023560
18:00+20вюв266562 0.0 1021212
21:00+15вюв39838 0.0 1020183
14 мая, пт
пт1400:00+14юв2887100 0.3 1019176
03:00+15ююв3118397 0.3 1018389
06:00+15ю3992100 1.6 1018545
09:00+16юз4782100 1.8 1018825
12:00+21юз485253 0.0 10181768
15:00+20ююз3757100 0.0 10181221
18:00+19ююз2666100 0.0 1017441
21:00+14ююз26875 0.0 1017129
15 мая, сб
сб1500:00+12юз229110 0.0 101732
03:00+11ю229653 0.0 101723
06:00+13ю1296100 0.3 101666
09:00+16юв248681 0.4 1015261
12:00+23ю355498 0.0 10141599
15:00+25ю364768 0.0 10122001
18:00+22вюв1166100 0.0 101021
21:00+17в3696100 12.1 1009143
16 мая, вс
вс1600:00+16ю4139111 4.9 1008876
03:00+13ю411940 4.9 1009434
06:00+14ю411911 0.0 1009446
09:00+19ююз597216 0.0 1008913
12:00+21юз59675 1.0 10081451
15:00+22юз5115756 1.3 10081631
18:00+19юз59765 1.5 10081019
21:00+15юз411873 1.5 1009478